TimeMST,TemperatureF,Dew PointF,Humidity,Sea Level PressureIn,VisibilityMPH,Wind Direction,Wind SpeedMPH,Gust SpeedMPH,PrecipitationIn,Events,Conditions,WindDirDegrees,DateUTC
12:53 AM,27.0,17.1,66,30.11,10.0,NNE,5.8,-,N/A,,Clear,20,2013-01-23 07:53:00
1:53 AM,26.1,17.1,69,30.12,10.0,NNE,10.4,-,N/A,,Clear,30,2013-01-23 08:53:00
2:53 AM,24.1,16.0,71,30.15,10.0,NE,10.4,-,N/A,,Clear,40,2013-01-23 09:53:00
3:53 AM,21.9,15.1,75,30.17,10.0,NE,11.5,-,N/A,,Clear,50,2013-01-23 10:53:00
4:53 AM,19.9,14.0,78,30.18,10.0,NNE,10.4,-,N/A,,Clear,30,2013-01-23 11:53:00
5:53 AM,19.0,14.0,81,30.20,10.0,North,16.1,-,N/A,,Clear,10,2013-01-23 12:53:00
6:53 AM,18.0,12.9,81,30.24,10.0,NNE,8.1,-,N/A,,Clear,20,2013-01-23 13:53:00
7:53 AM,17.1,12.0,81,30.25,10.0,NE,15.0,-,N/A,,Scattered Clouds,50,2013-01-23 14:53:00
8:53 AM,16.0,10.9,81,30.26,10.0,NE,13.8,-,N/A,,Scattered Clouds,40,2013-01-23 15:53:00
9:53 AM,16.0,10.9,81,30.28,10.0,NNE,9.2,-,N/A,,Scattered Clouds,30,2013-01-23 16:53:00
10:53 AM,17.1,10.9,77,30.28,10.0,NE,10.4,-,N/A,,Partly Cloudy,40,2013-01-23 17:53:00
11:53 AM,19.9,12.0,71,30.25,10.0,NE,10.4,-,N/A,,Scattered Clouds,40,2013-01-23 18:53:00
12:53 PM,21.0,12.9,71,30.24,10.0,NE,9.2,-,N/A,,Scattered Clouds,50,2013-01-23 19:53:00
1:53 PM,23.0,12.9,65,30.21,10.0,NE,8.1,-,N/A,,Scattered Clouds,50,2013-01-23 20:53:00
2:53 PM,24.1,14.0,65,30.21,10.0,NNE,5.8,-,N/A,,Scattered Clouds,30,2013-01-23 21:53:00
3:53 PM,24.1,14.0,65,30.19,10.0,NNE,3.5,-,N/A,,Partly Cloudy,20,2013-01-23 22:53:00
4:53 PM,23.0,14.0,68,30.18,10.0,NE,4.6,-,N/A,,Scattered Clouds,40,2013-01-23 23:53:00
5:53 PM,21.9,12.9,68,30.17,10.0,North,3.5,-,N/A,,Scattered Clouds,10,2013-01-24 00:53:00
6:53 PM,21.9,12.9,68,30.14,10.0,NE,4.6,-,N/A,,Scattered Clouds,40,2013-01-24 01:53:00
7:53 PM,19.9,12.9,74,30.15,10.0,North,4.6,-,N/A,,Mostly Cloudy,360,2013-01-24 02:53:00
8:53 PM,21.0,14.0,74,30.11,10.0,Calm,Calm,-,N/A,,Mostly Cloudy,0,2013-01-24 03:53:00
9:53 PM,21.0,14.0,74,30.10,10.0,Calm,Calm,-,N/A,,Mostly Cloudy,0,2013-01-24 04:53:00
10:53 PM,21.0,14.0,74,30.08,10.0,Calm,Calm,-,N/A,,Scattered Clouds,0,2013-01-24 05:53:00
11:53 PM,19.9,14.0,78,30.02,10.0,SSW,10.4,-,N/A,,Mostly Cloudy,210,2013-01-24 06:53:00